Location: Friaudour
(46.0460°N, 1.2873°E)
Time: 23:53:12
(UTC+00:00)

CZ-2D R/B - Pass Details

Date: 14 July 2020
Orbit: 792 x 845 km, 98.7° (Epoch: 03 August)

Event Time Altitude Azimuth Distance (km) Brightness Sun altitude
Rises 00:39:39 0° 24° (NNE) 3,349 6.7 -21.7°
Reaches altitude 10° 00:42:19 10° 36° (NE) 2,421 5.5 -21.7°
Maximum altitude 00:46:54 28° 94° (E) 1,508 3.5 -21.5°
Enters shadow 00:49:08 21° 132° (SE) 1,777 3.6 -21.4°
